Battle Creek, Michigan, United States (49014)
Lat: 42.32N, Lon: 85.18W
Wx Zone: MIZ073
Local Info
Past Weather Observations for Today

NOTE: This archive is for the closest National Weather Service station to Battle Creek. Information may differ from the station used for current weather conditions.

Click here for Long-term Archive

Time Weather Temperature Dewpoint Humidity Pressure Winds Precip Visibility
16:53
Overcast
18°F / -8°C 7°F / -14°C 62% 29.92 in
(1013 mb)
NW 13.8 mph
(NW 22 kph)
0.00 in
(0.00 mm)
9SM
15:53
Overcast
19°F / -7°C 7°F / -14°C 58% 29.89 in
(1012 mb)
NW 15 mph
(NW 24 kph)
- 10SM
14:53
Mostly Cloudy
19°F / -7°C 7°F / -14°C 58% 29.89 in
(1012 mb)
W 16.1 mph
(W 26 kph)
- 10SM
13:53
Mostly Cloudy
19°F / -7°C 7°F / -14°C 58% 29.86 in
(1011 mb)
NW 17.3 mph
(NW 28 kph)
0.00 in
(0.00 mm)
10SM
13:06
Overcast
Light Snow
19°F / -7°C 10°F / -12°C 68% 29.86 in
(1011 mb)
NW 10.4 mph
(NW 17 kph)
0.00 in
(0.00 mm)
3SM
13:01
Overcast
Light Snow
18°F / -8°C 10°F / -12°C 73% 29.89 in
(1012 mb)
NW 13.8 mph
(NW 22 kph)
0.00 in
(0.00 mm)
1 1/4SM
12:53
Overcast
Light Snow
19°F / -7°C 10°F / -12°C 68% 29.89 in
(1012 mb)
NNW 17.3 mph
(NNW 28 kph)
0.00 in
(0.00 mm)
2 1/2SM
12:02
Overcast
Light Snow
21°F / -6°C 10°F / -12°C 63% 29.89 in
(1012 mb)
NW 13.8 mph
(NW 22 kph)
0.00 in
(0.00 mm)
8SM
11:53
Overcast
Light Snow
19°F / -7°C 10°F / -12°C 68% 29.89 in
(1012 mb)
NW 16.1 mph
(NW 26 kph)
0.00 in
(0.00 mm)
4SM
11:34
Overcast
Light Snow
19°F / -7°C 10°F / -12°C 68% 29.89 in
(1012 mb)
WNW 8.1 mph
(WNW 13 kph)
0.00 in
(0.00 mm)
3SM
11:29
Overcast
Light Snow
18°F / -8°C 10°F / -12°C 73% 29.89 in
(1012 mb)
NW 9.2 mph
(NW 15 kph)
0.00 in
(0.00 mm)
1 3/4SM
11:17
Overcast
Light Snow
19°F / -7°C 9°F / -13°C 63% 29.89 in
(1012 mb)
NNW 13.8 mph
(NNW 22 kph)
0.00 in
(0.00 mm)
2 1/2SM
10:53
Overcast
19°F / -7°C 9°F / -13°C 63% 29.89 in
(1012 mb)
NW 13.8 mph
(NW 22 kph)
0.00 in
(0.00 mm)
9SM
10:10
Overcast
Light Snow
19°F / -7°C 9°F / -13°C 63% 29.86 in
(1011 mb)
NW 15 mph
(NW 24 kph)
0.00 in
(0.00 mm)
9SM
09:53
Overcast
18°F / -8°C 9°F / -13°C 68% 29.86 in
(1011 mb)
NW 16.1 mph
(NW 26 kph)
- 10SM
09:29
Mostly Cloudy
19°F / -7°C 9°F / -13°C 63% 29.86 in
(1011 mb)
NW 15 mph
(NW 24 kph)
- 10SM
08:53
Overcast
18°F / -8°C 9°F / -13°C 68% 29.83 in
(1010 mb)
NW 10.4 mph
(NW 17 kph)
- 10SM
07:53
Overcast
18°F / -8°C 9°F / -13°C 68% 29.83 in
(1010 mb)
NW 10.4 mph
(NW 17 kph)
0.00 in
(0.00 mm)
10SM
07:07
Overcast
18°F / -8°C 10°F / -12°C 73% 29.83 in
(1010 mb)
NW 10.4 mph
(NW 17 kph)
0.00 in
(0.00 mm)
9SM
06:53
Overcast
18°F / -8°C 10°F / -12°C 73% 29.83 in
(1010 mb)
NW 12.7 mph
(NW 20 kph)
0.00 in
(0.00 mm)
10SM
06:05
Overcast
19°F / -7°C 12°F / -11°C 73% 29.8 in
(1009 mb)
NW 10.4 mph
(NW 17 kph)
0.00 in
(0.00 mm)
9SM
05:49
Overcast
Light Snow
18°F / -8°C 12°F / -11°C 79% 29.8 in
(1009 mb)
NW 9.2 mph
(NW 15 kph)
0.00 in
(0.00 mm)
3SM
05:48
Overcast
Light Snow
18°F / -8°C 12°F / -11°C 79% 29.8 in
(1009 mb)
NW 9.2 mph
(NW 15 kph)
0.00 in
(0.00 mm)
3SM
05:18
Overcast
Light Snow
18°F / -8°C 12°F / -11°C 79% 29.8 in
(1009 mb)
NW 8.1 mph
(NW 13 kph)
0.00 in
(0.00 mm)
2 1/2SM
04:53
Overcast
18°F / -8°C 12°F / -11°C 79% 29.8 in
(1009 mb)
WNW 9.2 mph
(WNW 15 kph)
- 10SM
03:53
Mostly Cloudy
18°F / -8°C 10°F / -12°C 73% 29.8 in
(1009 mb)
NW 10.4 mph
(NW 17 kph)
0.00 in
(0.00 mm)
10SM
03:51
Mostly Cloudy
18°F / -8°C 10°F / -12°C 73% 29.8 in
(1009 mb)
NW 11.5 mph
(NW 19 kph)
0.00 in
(0.00 mm)
10SM
03:44
Mostly Cloudy
18°F / -8°C 12°F / -11°C 79% 29.8 in
(1009 mb)
NW 9.2 mph
(NW 15 kph)
0.00 in
(0.00 mm)
10SM
03:14
Overcast
Light Snow
19°F / -7°C 14°F / -10°C 79% 29.77 in
(1008 mb)
NW 10.4 mph
(NW 17 kph)
0.00 in
(0.00 mm)
4SM
03:03
Overcast
Light Snow
19°F / -7°C 14°F / -10°C 79% 29.77 in
(1008 mb)
NW 6.9 mph
(NW 11 kph)
0.00 in
(0.00 mm)
2SM
02:53
Overcast
Light Snow
19°F / -7°C 12°F / -11°C 73% 29.77 in
(1008 mb)
NW 8.1 mph
(NW 13 kph)
0.00 in
(0.00 mm)
4SM
01:53
Overcast
19°F / -7°C 12°F / -11°C 73% 29.77 in
(1008 mb)
NW 11.5 mph
(NW 19 kph)
- 10SM
00:53
Overcast
21°F / -6°C 12°F / -11°C 68% 29.77 in
(1008 mb)
NW 10.4 mph
(NW 17 kph)
0.00 in
(0.00 mm)
10SM
00:29
Overcast
21°F / -6°C 14°F / -10°C 74% 29.77 in
(1008 mb)
NW 13.8 mph
(NW 22 kph)
0.00 in
(0.00 mm)
9SM
00:20
Overcast
Light Snow
21°F / -6°C 16°F / -9°C 80% 29.77 in
(1008 mb)
NW 10.4 mph
(NW 17 kph)
0.00 in
(0.00 mm)
7SM
00:13
Overcast
Light Snow
21°F / -6°C 16°F / -9°C 80% 29.77 in
(1008 mb)
NW 12.7 mph
(NW 20 kph)
0.00 in
(0.00 mm)
2 1/2SM
Time Weather Temperature Dewpoint Humidity Pressure Winds Precip Visibility


Weather for websites

WeatherForYou.com, LLC is not responsible for any damages or problems caused by this service. Current weather conditions are obtained from the closest station including government and personal stations which may have varying degrees of accuracy. Weather forecasts are derived from the NOAA NDFD. Like all things, this site belongs to Jesus Christ... He just trusts us to maintain it. If you have any questions or comments email webmaster@weatherforyou.com

Copyright © 2016, WeatherForYou.com LLC. All rights reserved.